GPS BIIF-9

Last updated on Tue Sep 22 2026 00:03:02 GMT+0000 (Coordinated Universal Time)

1 40534U 15013A 26264.28642891 -.00000017 00000+0 00000+0 0 9993 2 40534 53.1559 200.2062 0113307 41.2826 319.5581 2.00570505 83755
UTC large
Height (km)
Speed (km/s)
/
Latitude / Longitude
Inclination (degrees)
Orbital Period (minutes)
Azimuth
Elevation
Range (km)
Doppler Factor

Next 0 passes for location: London (51.5072 / 0.1276)

No passes found over London.
GPS BIIF-9